EW6741 Milford CT US current weather conditions

sailwx.info

Wind from 172

Air temperature 7.8° C
Dewpoint 4.4° C

Last reported at 2019-Dec-11 03:00 UTC.
Time now 2019-Dec-11 03:57 UTC

Location: N 41°12' W 073°02'.
View on Google Maps.

See reports from other nearby stations

  
Tides and Currents Weather Stations Pressure Air Temp Water Temp Dewpoint Dewpoint Depression Visibility Wind Speed Wind Dir Waves Ship Positions
date/time (UTC)wind fromknots sea level pressurealtimeterstation pressurevisibilityair tempwater tempwave heightnotes
2019-Dec-11 03:30 200 7.2
2019-Dec-11 03:20 223 7.2
2019-Dec-11 03:10 316 0 gusting 7 7.8
2019-Dec-11 03:00 172 7.8
2019-Dec-11 02:50 333 2 gusting 10 7.8
2019-Dec-11 02:40 228 0 gusting 10 8.3
2019-Dec-11 02:30 336 4 gusting 13 8.3
2019-Dec-11 02:19 063 0 gusting 13 8.3
2019-Dec-11 02:09 339 5 gusting 14 8.9
2019-Dec-11 01:59 186 0 gusting 13 9.4
2019-Dec-11 01:49 286 3 gusting 7 10.0
2019-Dec-11 01:39 015 2 gusting 6 9.4
2019-Dec-11 01:29 189 9.4
2019-Dec-11 01:19 354 1 gusting 6 9.4
2019-Dec-11 01:09 339 3 gusting 7 9.4
2019-Dec-11 00:59 016 2 gusting 7 9.4
2019-Dec-11 00:49 005 3 gusting 12 10.0
2019-Dec-11 00:39 010 5 gusting 14 10.0
2019-Dec-11 00:28 356 9 gusting 17 10.6
2019-Dec-11 00:18 357 2 gusting 10 11.1
2019-Dec-11 00:08 214 11.1
2019-Dec-10 23:58 199 10.6
2019-Dec-10 23:48 216 0 gusting 1 10.6
2019-Dec-10 23:38 202 10.6
2019-Dec-10 23:28 168 10.0
2019-Dec-10 23:18 167 10.0
2019-Dec-10 23:08 182 10.0
2019-Dec-10 22:58 213 1 gusting 7 10.0
2019-Dec-10 22:48 217 1 gusting 6 10.0
2019-Dec-10 22:37 329 0 gusting 6 10.6
2019-Dec-10 22:27 213 1 gusting 6 10.6
2019-Dec-10 22:17 221 3 gusting 6 11.1
2019-Dec-10 22:07 209 2 gusting 4 11.1
2019-Dec-10 21:57 214 0 gusting 2 10.6
2019-Dec-10 21:47 149 10.6
2019-Dec-10 21:37 196 10.6
2019-Dec-10 21:27 218 0 gusting 4 10.6
2019-Dec-10 21:17 200 0 gusting 2 10.6
2019-Dec-10 21:07 186 11.1
2019-Dec-10 20:57 197 11.1
2019-Dec-10 20:46 234 11.1
2019-Dec-10 20:36 260 10.6
2019-Dec-10 20:26 237 10.6
2019-Dec-10 20:16 181 10.6
2019-Dec-10 20:06 194 10.6
2019-Dec-10 19:56 220 10.6
2019-Dec-10 19:46 225 2 gusting 4 10.6
2019-Dec-10 19:36 202 0 gusting 2 10.6
2019-Dec-10 19:26 197 10.6
2019-Dec-10 19:15 206 11.1
2019-Dec-10 19:05 231 2 gusting 6 10.6
2019-Dec-10 18:55 202 10.6
2019-Dec-10 18:45 219 1 gusting 4 10.6
2019-Dec-10 18:35 199 1 gusting 6 11.1
2019-Dec-10 18:25 333 1 gusting 8 10.6
2019-Dec-10 18:15 190 0 gusting 6 10.6
2019-Dec-10 18:05 189 1 gusting 7 11.1
2019-Dec-10 17:55 216 1 gusting 4 11.1
2019-Dec-10 17:45 226 0 gusting 4 11.1
2019-Dec-10 17:35 197 11.1
2019-Dec-10 17:25 157 0 gusting 6 11.1
2019-Dec-10 17:14 200 0 gusting 6 10.6
2019-Dec-10 17:04 196 2 gusting 4 11.1
2019-Dec-10 16:54 209 0 gusting 6 11.1
2019-Dec-10 16:44 194 1 gusting 4 11.1
2019-Dec-10 16:34 224 0 gusting 6 10.6
2019-Dec-10 16:24 208 0 gusting 2 10.6
2019-Dec-10 16:14 211 10.6
2019-Dec-10 16:04 204 0 gusting 4 11.1
2019-Dec-10 15:54 189 1 gusting 2 11.1
2019-Dec-10 15:44 211 11.1
2019-Dec-10 15:34 209 11.1
2019-Dec-10 15:24 207 11.1
2019-Dec-10 15:13 206 10.6
2019-Dec-10 15:03 205 11.1
2019-Dec-10 14:53 207 11.1
2019-Dec-10 14:43 203 0 gusting 2 10.6
2019-Dec-10 14:33 196 10.6
2019-Dec-10 14:23 191 10.0
2019-Dec-10 14:13 188 1 gusting 2 10.6
2019-Dec-10 14:03 187 0 gusting 2 10.6
2019-Dec-10 13:53 197 0 gusting 4 10.6
2019-Dec-10 13:43 202 10.6
2019-Dec-10 13:33 214 0 gusting 2 10.6
2019-Dec-10 13:22 206 0 gusting 2 10.0
2019-Dec-10 13:12 198 0 gusting 1 10.0
2019-Dec-10 13:02 222 10.0
2019-Dec-10 12:52 193 1 gusting 2 10.6
2019-Dec-10 12:42 203 0 gusting 4 10.6
2019-Dec-10 12:32 203 1 gusting 4 10.0
2019-Dec-10 12:22 193 0 gusting 1 9.4
2019-Dec-10 12:12 197 0 gusting 1 10.0
2019-Dec-10 12:02 179 10.0
2019-Dec-10 11:52 190 10.0
2019-Dec-10 11:42 189 10.0
2019-Dec-10 11:31 199 10.6
2019-Dec-10 11:21 213 10.6
2019-Dec-10 11:11 207 0 gusting 2 10.6
2019-Dec-10 11:01 204 0 gusting 4 10.6
2019-Dec-10 10:51 209 10.6
2019-Dec-10 10:41 208 1 gusting 2 10.6
2019-Dec-10 10:31 205 10.6
2019-Dec-10 10:21 201 0 gusting 2 10.6
2019-Dec-10 10:11 209 10.6
2019-Dec-10 10:01 233 0 gusting 2 11.1
2019-Dec-10 09:51 199 11.1
2019-Dec-10 09:41 189 10.6
2019-Dec-10 09:31 214 10.6
2019-Dec-10 09:20 214 10.6
2019-Dec-10 09:10 200 10.6
2019-Dec-10 09:00 214 0 gusting 2 10.6
2019-Dec-10 08:50 214 10.6
2019-Dec-10 08:40 214 0 gusting 2 10.6
2019-Dec-10 08:30 206 10.0
2019-Dec-10 08:20 215 0 gusting 4 10.6
2019-Dec-10 08:10 215 1 gusting 4 10.6
2019-Dec-10 08:00 196 0 gusting 4 10.6
2019-Dec-10 07:50 213 0 gusting 4 10.6
2019-Dec-10 07:40 217 10.6
2019-Dec-10 07:30 192 10.6
2019-Dec-10 07:20 194 10.6
2019-Dec-10 07:09 221 2 gusting 4 10.6
2019-Dec-10 06:59 226 10.6
2019-Dec-10 06:49 204 1 gusting 4 11.1
2019-Dec-10 06:39 193 10.6
2019-Dec-10 06:29 217 10.0
2019-Dec-10 06:19 201 10.0
2019-Dec-10 06:09 197 0 gusting 4 10.0
2019-Dec-10 05:59 204 0 gusting 4 10.0
2019-Dec-10 05:49 189 10.6
2019-Dec-10 05:39 177 5 gusting 6 10.6
2019-Dec-10 05:29 227 1 gusting 6 10.6
2019-Dec-10 05:19 217 0 gusting 4 10.6
2019-Dec-10 05:08 213 0 gusting 6 10.6
2019-Dec-10 04:58 203 0 gusting 6 10.6
2019-Dec-10 04:48 217 1 gusting 4 10.6
2019-Dec-10 04:38 188 0 gusting 4 10.6
2019-Dec-10 04:28 206 10.0
2019-Dec-10 04:18 219 10.6
2019-Dec-10 04:08 210 1 gusting 4 10.6
2019-Dec-10 03:58 202 0 gusting 4 10.6
2019-Dec-10 03:48 174 1 gusting 7 11.1
2019-Dec-10 03:37 229 2 gusting 8 11.1
2019-Dec-10 03:27 228 1 gusting 8 11.1
2019-Dec-10 03:17 211 2 gusting 7 11.1
2019-Dec-10 03:07 171 1 gusting 6 10.6
2019-Dec-10 02:57 167 3 gusting 10 11.1
2019-Dec-10 02:47 187 2 gusting 12 11.1
2019-Dec-10 02:37 218 4 gusting 7 10.6
2019-Dec-10 02:27 213 0 gusting 10 10.6
2019-Dec-10 02:17 232 4 gusting 6 10.6
2019-Dec-10 02:07 203 2 gusting 8 10.6
2019-Dec-10 01:57 215 4 gusting 12 11.7
2019-Dec-10 01:46 170 3 gusting 14 11.7
2019-Dec-10 01:36 198 6 gusting 14 11.1
2019-Dec-10 01:26 198 2 gusting 8 11.1
2019-Dec-10 01:16 209 0 gusting 7 10.6
2019-Dec-10 01:06 192 3 gusting 8 11.1
2019-Dec-10 00:56 200 0 gusting 2 10.6
2019-Dec-10 00:46 202 10.6
2019-Dec-10 00:36 206 1 gusting 2 9.4
2019-Dec-10 00:26 185 0 gusting 2 9.4
2019-Dec-10 00:15 182 1 gusting 4 9.4
2019-Dec-10 00:05 172 2 gusting 4 9.4
2019-Dec-09 23:55 196 0 gusting 2 9.4
2019-Dec-09 23:45 203 0 gusting 2 9.4
2019-Dec-09 23:35 189 1 gusting 7 9.4
2019-Dec-09 23:25 184 1 gusting 4 10.0
2019-Dec-09 23:15 176 0 gusting 4 10.0
2019-Dec-09 23:05 182 1 gusting 6 10.0
2019-Dec-09 22:55 191 3 gusting 6 9.4
2019-Dec-09 22:45 188 2 gusting 6 9.4
2019-Dec-09 22:34 186 1 gusting 4 9.4
2019-Dec-09 22:24 201 1 gusting 4 9.4
2019-Dec-09 22:14 196 1 gusting 2 8.9
2019-Dec-09 22:04 181 1 gusting 2 8.9
2019-Dec-09 21:54 183 1 gusting 2 8.9
2019-Dec-09 21:44 187 0 gusting 2 9.4
2019-Dec-09 21:34 209 0 gusting 1 10.0
2019-Dec-09 21:24 216 10.0
2019-Dec-09 21:13 249 10.0
2019-Dec-09 21:03 217 9.4
2019-Dec-09 20:53 223 1 gusting 2 9.4
2019-Dec-09 20:43 190 1 gusting 6 9.4
2019-Dec-09 20:33 222 10.0
2019-Dec-09 20:23 186 0 gusting 2 9.4
2019-Dec-09 20:13 201 10.6
2019-Dec-09 20:03 217 0 gusting 2 10.6
2019-Dec-09 19:53 247 0 gusting 4 10.6
2019-Dec-09 19:43 218 1 gusting 8 10.6
2019-Dec-09 19:32
2019-Dec-09 19:00 188 4 gusting 6 11.1
2019-Dec-09 18:44 184 4 gusting 7 11.1
2019-Dec-09 18:26
2019-Dec-09 18:07 224 4 gusting 6 11.1
2019-Dec-09 17:56 190 6 gusting 8 11.1
2019-Dec-09 17:43 173 4 gusting 12 11.7
2019-Dec-09 17:19 181 3 gusting 7 11.7
2019-Dec-09 17:04 201 4 gusting 6 11.7
2019-Dec-09 16:53 185 6 gusting 12 11.7
2019-Dec-09 16:42 174 10 gusting 17 12.2
2019-Dec-09 16:31 212 9 gusting 19 12.2
2019-Dec-09 16:20 215 9 gusting 14 12.2
2019-Dec-09 16:10 239 13 gusting 17 12.2
2019-Dec-09 16:00 175 15 gusting 20 11.7
2019-Dec-09 15:50 181 14 gusting 19 11.7
2019-Dec-09 15:38 181 13 gusting 17 11.1
2019-Dec-09 15:26 175 9 gusting 13 11.1
2019-Dec-09 15:15 232 6 gusting 7 10.0
2019-Dec-09 15:05 115 3 gusting 4 10.6
2019-Dec-09 14:55 111 9.4
2019-Dec-09 14:45 080 9.4
2019-Dec-09 14:35 091 9.4
2019-Dec-09 14:25 138 1 gusting 4 8.9
2019-Dec-09 14:14 113 7.8
2019-Dec-09 14:04 068 7.2
2019-Dec-09 13:52 067 1 gusting 2 6.7
2019-Dec-09 13:41 063 6.7
2019-Dec-09 13:31 126 6.7
2019-Dec-09 13:21 119 6.7
2019-Dec-09 13:10 077 6.7
2019-Dec-09 12:59 088 0 gusting 4 6.1
2019-Dec-09 12:49 080 5.6
2019-Dec-09 12:39 067 0 gusting 2 5.6
2019-Dec-09 12:29 069 0 gusting 2 5.6
2019-Dec-09 12:19 098 5.6
2019-Dec-09 12:09 046 1 gusting 4 5.0
2019-Dec-09 11:59 069 0 gusting 1 5.0
2019-Dec-09 11:49 082 0 gusting 2 5.0
2019-Dec-09 11:39 106 5.0
2019-Dec-09 11:29 108 0 gusting 1 5.0
2019-Dec-09 11:19 167 5.0
2019-Dec-09 11:09 312 5.0
2019-Dec-09 10:59 312 5.0
2019-Dec-09 10:48 311 5.0
2019-Dec-09 10:38 311 4.4
2019-Dec-09 10:28 310 4.4
2019-Dec-09 10:18 310 4.4
2019-Dec-09 10:08 310 4.4
2019-Dec-09 09:58 310 4.4
2019-Dec-09 09:48 310 4.4
2019-Dec-09 09:38 310 4.4
2019-Dec-09 09:28 310 4.4
2019-Dec-09 09:18 310 3.9
2019-Dec-09 09:08 311 3.9
2019-Dec-09 08:58 310 0 gusting 1 3.9
2019-Dec-09 08:48 310 3.9
2019-Dec-09 08:37 309 3.3
2019-Dec-09 08:27 309 3.3
2019-Dec-09 08:17 309 3.9
2019-Dec-09 08:07 309 3.9
2019-Dec-09 07:57 309 3.3
2019-Dec-09 07:47 309 3.3
2019-Dec-09 07:37 309 3.3
2019-Dec-09 07:27 309 3.3
2019-Dec-09 07:17 309 3.3
2019-Dec-09 07:07 309 3.3
2019-Dec-09 06:57 309 0 gusting 1 3.3
2019-Dec-09 06:47 309 3.3
2019-Dec-09 06:37 309 3.3
2019-Dec-09 06:27 309 3.3
2019-Dec-09 06:16 309 3.3
2019-Dec-09 06:06 314 1 gusting 2 3.3
2019-Dec-09 05:56 340 3.3
2019-Dec-09 05:46 338 0 gusting 2 2.8
2019-Dec-09 05:36 348 1 gusting 2 2.8
2019-Dec-09 05:26 345 1 gusting 2 2.8
2019-Dec-09 05:16 330 1 gusting 2 2.8
2019-Dec-09 05:06 305 1 gusting 2 2.8
2019-Dec-09 04:56 297 1 gusting 2 2.8
2019-Dec-09 04:46 295 1 gusting 2 2.8
2019-Dec-09 04:36 251 0 gusting 1 2.8
2019-Dec-09 04:26 249 2.8
2019-Dec-09 04:15 226 0 gusting 1 3.9
2019-Dec-09 04:05 224 3.9
2019-Dec-09 03:55 222 3.9
2019-Dec-09 03:45 221 4.4
2019-Dec-09 03:35 221 4.4
2019-Dec-09 03:25 221 5.0
2019-Dec-09 03:15 212 5.0
2019-Dec-09 03:05 207 5.6